Time,TemperatureF,DewpointF,PressureIn,WindDirection,WindDirectionDegrees,WindSpeedMPH,WindSpeedGustMPH,Humidity,HourlyPrecipIn,Conditions,Clouds,dailyrainin,SoftwareType,DateUTC
2013-01-21 00:02:00,22.0,5.0,-100.00,North,-999,-999.0,-999.0,47,-99.99,,,-99.99,,2013-01-21 07:02:00,
2013-01-21 00:12:00,24.0,3.0,-100.00,North,-999,-999.0,-999.0,40,-99.99,,,-99.99,,2013-01-21 07:12:00,
2013-01-21 00:22:00,24.0,3.0,-100.00,North,-999,-999.0,-999.0,40,-99.99,,,-99.99,,2013-01-21 07:22:00,
2013-01-21 00:33:00,24.0,3.0,-100.00,North,-999,-999.0,-999.0,40,-99.99,,,-99.99,,2013-01-21 07:33:00,
2013-01-21 00:42:00,23.0,5.0,-100.00,North,-999,-999.0,-999.0,44,-99.99,,,-99.99,,2013-01-21 07:42:00,
2013-01-21 00:53:00,23.0,5.0,-100.00,North,-999,-999.0,-999.0,45,-99.99,,,-99.99,,2013-01-21 07:53:00,
2013-01-21 01:02:00,23.0,5.0,-100.00,North,-999,-999.0,-999.0,45,-99.99,,,-99.99,,2013-01-21 08:02:00,
2013-01-21 01:13:00,23.0,5.0,-100.00,North,-999,-999.0,-999.0,46,-99.99,,,-99.99,,2013-01-21 08:13:00,
2013-01-21 01:22:00,23.0,5.0,-100.00,North,-999,-999.0,-999.0,46,-99.99,,,-99.99,,2013-01-21 08:22:00,
2013-01-21 01:42:00,23.0,5.0,-100.00,North,-999,-999.0,-999.0,44,-99.99,,,-99.99,,2013-01-21 08:42:00,
2013-01-21 01:53:00,23.0,5.0,-100.00,North,-999,-999.0,-999.0,44,-99.99,,,-99.99,,2013-01-21 08:53:00,
2013-01-21 02:02:00,23.0,5.0,-100.00,North,-999,-999.0,-999.0,45,-99.99,,,-99.99,,2013-01-21 09:02:00,
2013-01-21 02:12:00,23.0,6.0,-100.00,North,-999,-999.0,-999.0,47,-99.99,,,-99.99,,2013-01-21 09:12:00,
2013-01-21 02:22:00,23.0,6.0,-100.00,North,-999,-999.0,-999.0,47,-99.99,,,-99.99,,2013-01-21 09:22:00,
2013-01-21 02:32:00,23.0,6.0,-100.00,North,-999,-999.0,-999.0,47,-99.99,,,-99.99,,2013-01-21 09:32:00,
2013-01-21 02:42:00,23.0,9.0,-100.00,North,-999,-999.0,-999.0,54,-99.99,,,-99.99,,2013-01-21 09:42:00,
2013-01-21 02:53:00,24.0,9.0,-100.00,North,-999,-999.0,-999.0,52,-99.99,,,-99.99,,2013-01-21 09:53:00,
2013-01-21 03:02:00,24.0,9.0,-100.00,North,-999,-999.0,-999.0,52,-99.99,,,-99.99,,2013-01-21 10:02:00,
2013-01-21 03:12:00,23.0,10.0,-100.00,North,-999,-999.0,-999.0,56,-99.99,,,-99.99,,2013-01-21 10:12:00,
2013-01-21 03:22:00,23.0,10.0,-100.00,North,-999,-999.0,-999.0,56,-99.99,,,-99.99,,2013-01-21 10:22:00,
2013-01-21 03:42:00,24.0,11.0,-100.00,North,-999,-999.0,-999.0,58,-99.99,,,-99.99,,2013-01-21 10:42:00,
2013-01-21 03:52:00,24.0,11.0,-100.00,North,-999,-999.0,-999.0,58,-99.99,,,-99.99,,2013-01-21 10:52:00,
2013-01-21 04:02:00,24.0,11.0,-100.00,North,-999,-999.0,-999.0,58,-99.99,,,-99.99,,2013-01-21 11:02:00,
2013-01-21 04:12:00,24.0,12.0,-100.00,North,-999,-999.0,-999.0,58,-99.99,,,-99.99,,2013-01-21 11:12:00,
2013-01-21 04:22:00,24.0,12.0,-100.00,North,-999,-999.0,-999.0,58,-99.99,,,-99.99,,2013-01-21 11:22:00,
2013-01-21 04:32:00,24.0,12.0,-100.00,North,-999,-999.0,-999.0,58,-99.99,,,-99.99,,2013-01-21 11:32:00,
2013-01-21 04:42:00,24.0,13.0,-100.00,North,-999,-999.0,-999.0,62,-99.99,,,-99.99,,2013-01-21 11:42:00,
2013-01-21 04:53:00,24.0,13.0,-100.00,North,-999,-999.0,-999.0,62,-99.99,,,-99.99,,2013-01-21 11:53:00,
2013-01-21 05:02:00,24.0,14.0,-100.00,North,-999,-999.0,-999.0,63,-99.99,,,-99.99,,2013-01-21 12:02:00,
2013-01-21 05:12:00,24.0,14.0,-100.00,North,-999,-999.0,-999.0,65,-99.99,,,-99.99,,2013-01-21 12:12:00,
2013-01-21 05:22:00,24.0,14.0,-100.00,North,-999,-999.0,-999.0,65,-99.99,,,-99.99,,2013-01-21 12:22:00,
2013-01-21 05:32:00,24.0,14.0,-100.00,North,-999,-999.0,-999.0,65,-99.99,,,-99.99,,2013-01-21 12:32:00,
2013-01-21 05:42:00,24.0,14.0,-100.00,North,-999,-999.0,-999.0,65,-99.99,,,-99.99,,2013-01-21 12:42:00,
2013-01-21 05:53:00,24.0,14.0,-100.00,North,-999,-999.0,-999.0,65,-99.99,,,-99.99,,2013-01-21 12:53:00,
2013-01-21 06:02:00,24.0,14.0,-100.00,North,-999,-999.0,-999.0,65,-99.99,,,-99.99,,2013-01-21 13:02:00,
2013-01-21 06:12:00,23.0,14.0,-100.00,North,-999,-999.0,-999.0,67,-99.99,,,-99.99,,2013-01-21 13:12:00,
2013-01-21 06:23:00,23.0,14.0,-100.00,North,-999,-999.0,-999.0,67,-99.99,,,-99.99,,2013-01-21 13:23:00,
2013-01-21 06:42:00,24.0,14.0,-100.00,North,-999,-999.0,-999.0,66,-99.99,,,-99.99,,2013-01-21 13:42:00,
2013-01-21 06:53:00,24.0,14.0,-100.00,North,-999,-999.0,-999.0,66,-99.99,,,-99.99,,2013-01-21 13:53:00,
2013-01-21 07:03:00,24.0,14.0,-100.00,North,-999,-999.0,-999.0,66,-99.99,,,-99.99,,2013-01-21 14:03:00,
2013-01-21 07:12:00,23.0,14.0,-100.00,North,-999,-999.0,-999.0,67,-99.99,,,-99.99,,2013-01-21 14:12:00,
2013-01-21 07:22:00,23.0,14.0,-100.00,North,-999,-999.0,-999.0,67,-99.99,,,-99.99,,2013-01-21 14:22:00,
2013-01-21 07:32:00,23.0,14.0,-100.00,North,-999,-999.0,-999.0,67,-99.99,,,-99.99,,2013-01-21 14:32:00,
2013-01-21 07:43:00,23.0,14.0,-100.00,North,-999,-999.0,-999.0,67,-99.99,,,-99.99,,2013-01-21 14:43:00,
2013-01-21 07:53:00,23.0,14.0,-100.00,North,-999,-999.0,-999.0,67,-99.99,,,-99.99,,2013-01-21 14:53:00,
2013-01-21 08:03:00,24.0,14.0,-100.00,North,-999,-999.0,-999.0,67,-99.99,,,-99.99,,2013-01-21 15:03:00,
2013-01-21 08:12:00,24.0,15.0,-100.00,North,-999,-999.0,-999.0,67,-99.99,,,-99.99,,2013-01-21 15:12:00,
2013-01-21 08:22:00,24.0,15.0,-100.00,North,-999,-999.0,-999.0,67,-99.99,,,-99.99,,2013-01-21 15:22:00,
2013-01-21 08:32:00,24.0,15.0,-100.00,North,-999,-999.0,-999.0,67,-99.99,,,-99.99,,2013-01-21 15:32:00,
2013-01-21 08:42:00,24.0,14.0,-100.00,North,-999,-999.0,-999.0,66,-99.99,,,-99.99,,2013-01-21 15:42:00,
2013-01-21 08:53:00,24.0,14.0,-100.00,North,-999,-999.0,-999.0,64,-99.99,,,-99.99,,2013-01-21 15:53:00,
2013-01-21 09:03:00,24.0,14.0,-100.00,North,-999,-999.0,-999.0,64,-99.99,,,-99.99,,2013-01-21 16:03:00,
2013-01-21 09:12:00,24.0,14.0,-100.00,North,-999,-999.0,-999.0,65,-99.99,,,-99.99,,2013-01-21 16:12:00,
2013-01-21 09:23:00,24.0,14.0,-100.00,North,-999,-999.0,-999.0,65,-99.99,,,-99.99,,2013-01-21 16:23:00,
2013-01-21 09:32:00,24.0,14.0,-100.00,North,-999,-999.0,-999.0,65,-99.99,,,-99.99,,2013-01-21 16:32:00,
2013-01-21 09:43:00,25.0,15.0,-100.00,North,-999,-999.0,-999.0,65,-99.99,,,-99.99,,2013-01-21 16:43:00,
2013-01-21 09:53:00,25.0,15.0,-100.00,North,-999,-999.0,-999.0,65,-99.99,,,-99.99,,2013-01-21 16:53:00,
2013-01-21 10:02:00,25.0,15.0,-100.00,North,-999,-999.0,-999.0,65,-99.99,,,-99.99,,2013-01-21 17:02:00,
2013-01-21 10:12:00,27.0,15.0,-100.00,North,-999,-999.0,-999.0,61,-99.99,,,-99.99,,2013-01-21 17:12:00,
2013-01-21 10:22:00,27.0,15.0,-100.00,North,-999,-999.0,-999.0,61,-99.99,,,-99.99,,2013-01-21 17:22:00,
2013-01-21 10:33:00,27.0,15.0,-100.00,North,-999,-999.0,-999.0,61,-99.99,,,-99.99,,2013-01-21 17:33:00,
2013-01-21 10:42:00,31.0,15.0,-100.00,North,-999,-999.0,-999.0,51,-99.99,,,-99.99,,2013-01-21 17:42:00,
2013-01-21 10:53:00,31.0,15.0,-100.00,North,-999,-999.0,-999.0,51,-99.99,,,-99.99,,2013-01-21 17:53:00,
2013-01-21 11:02:00,32.0,15.0,-100.00,North,-999,-999.0,-999.0,49,-99.99,,,-99.99,,2013-01-21 18:02:00,
2013-01-21 11:12:00,35.0,17.0,-100.00,North,-999,-999.0,-999.0,47,-99.99,,,-99.99,,2013-01-21 18:12:00,
2013-01-21 11:22:00,35.0,17.0,-100.00,North,-999,-999.0,-999.0,47,-99.99,,,-99.99,,2013-01-21 18:22:00,
2013-01-21 11:33:00,35.0,17.0,-100.00,North,-999,-999.0,-999.0,47,-99.99,,,-99.99,,2013-01-21 18:33:00,
2013-01-21 11:42:00,37.0,18.0,-100.00,North,-999,-999.0,-999.0,45,-99.99,,,-99.99,,2013-01-21 18:42:00,
2013-01-21 11:53:00,37.0,18.0,-100.00,North,-999,-999.0,-999.0,45,-99.99,,,-99.99,,2013-01-21 18:53:00,
2013-01-21 12:03:00,41.0,19.0,-100.00,North,-999,-999.0,-999.0,40,-99.99,,,-99.99,,2013-01-21 19:03:00,
2013-01-21 12:12:00,40.0,19.0,-100.00,North,-999,-999.0,-999.0,42,-99.99,,,-99.99,,2013-01-21 19:12:00,
2013-01-21 12:22:00,40.0,19.0,-100.00,North,-999,-999.0,-999.0,42,-99.99,,,-99.99,,2013-01-21 19:22:00,
2013-01-21 12:42:00,44.0,20.0,-100.00,North,-999,-999.0,-999.0,37,-99.99,,,-99.99,,2013-01-21 19:42:00,
2013-01-21 12:53:00,44.0,20.0,-100.00,North,-999,-999.0,-999.0,37,-99.99,,,-99.99,,2013-01-21 19:53:00,
2013-01-21 13:03:00,45.0,20.0,-100.00,North,-999,-999.0,-999.0,36,-99.99,,,-99.99,,2013-01-21 20:03:00,
2013-01-21 13:12:00,50.0,22.0,-100.00,North,-999,-999.0,-999.0,32,-99.99,,,-99.99,,2013-01-21 20:12:00,
2013-01-21 13:22:00,50.0,22.0,-100.00,North,-999,-999.0,-999.0,32,-99.99,,,-99.99,,2013-01-21 20:22:00,
2013-01-21 13:42:00,50.0,23.0,-100.00,North,-999,-999.0,-999.0,34,-99.99,,,-99.99,,2013-01-21 20:42:00,
2013-01-21 14:03:00,52.0,24.0,-100.00,North,-999,-999.0,-999.0,33,-99.99,,,-99.99,,2013-01-21 21:03:00,
2013-01-21 14:12:00,47.0,23.0,-100.00,North,-999,-999.0,-999.0,37,-99.99,,,-99.99,,2013-01-21 21:12:00,
2013-01-21 14:43:00,40.0,21.0,-100.00,North,-999,-999.0,-999.0,46,-99.99,,,-99.99,,2013-01-21 21:43:00,
2013-01-21 14:53:00,40.0,21.0,-100.00,North,-999,-999.0,-999.0,46,-99.99,,,-99.99,,2013-01-21 21:53:00,
2013-01-21 15:12:00,42.0,21.0,-100.00,North,-999,-999.0,-999.0,42,-99.99,,,-99.99,,2013-01-21 22:12:00,
2013-01-21 15:23:00,42.0,21.0,-100.00,North,-999,-999.0,-999.0,42,-99.99,,,-99.99,,2013-01-21 22:23:00,
2013-01-21 15:42:00,41.0,21.0,-100.00,North,-999,-999.0,-999.0,43,-99.99,,,-99.99,,2013-01-21 22:42:00,
2013-01-21 15:53:00,43.0,21.0,-100.00,North,-999,-999.0,-999.0,40,-99.99,,,-99.99,,2013-01-21 22:53:00,
2013-01-21 16:03:00,43.0,21.0,-100.00,North,-999,-999.0,-999.0,40,-99.99,,,-99.99,,2013-01-21 23:03:00,
2013-01-21 16:12:00,40.0,20.0,-100.00,North,-999,-999.0,-999.0,44,-99.99,,,-99.99,,2013-01-21 23:12:00,
2013-01-21 16:22:00,40.0,20.0,-100.00,North,-999,-999.0,-999.0,44,-99.99,,,-99.99,,2013-01-21 23:22:00,
2013-01-21 16:42:00,30.0,16.0,-100.00,North,-999,-999.0,-999.0,55,-99.99,,,-99.99,,2013-01-21 23:42:00,
2013-01-21 16:53:00,30.0,16.0,-100.00,North,-999,-999.0,-999.0,55,-99.99,,,-99.99,,2013-01-21 23:53:00,
2013-01-21 17:02:00,30.0,16.0,-100.00,North,-999,-999.0,-999.0,55,-99.99,,,-99.99,,2013-01-22 00:02:00,
2013-01-21 17:12:00,30.0,14.0,-100.00,North,-999,-999.0,-999.0,52,-99.99,,,-99.99,,2013-01-22 00:12:00,
2013-01-21 17:22:00,30.0,14.0,-100.00,North,-999,-999.0,-999.0,52,-99.99,,,-99.99,,2013-01-22 00:22:00,
2013-01-21 17:42:00,29.0,12.0,-100.00,North,-999,-999.0,-999.0,48,-99.99,,,-99.99,,2013-01-22 00:42:00,
2013-01-21 17:53:00,29.0,12.0,-100.00,North,-999,-999.0,-999.0,48,-99.99,,,-99.99,,2013-01-22 00:53:00,
2013-01-21 18:02:00,29.0,12.0,-100.00,North,-999,-999.0,-999.0,48,-99.99,,,-99.99,,2013-01-22 01:02:00,
2013-01-21 18:12:00,28.0,11.0,-100.00,North,-999,-999.0,-999.0,48,-99.99,,,-99.99,,2013-01-22 01:12:00,
2013-01-21 18:23:00,28.0,11.0,-100.00,North,-999,-999.0,-999.0,48,-99.99,,,-99.99,,2013-01-22 01:23:00,
2013-01-21 18:42:00,28.0,10.0,-100.00,North,-999,-999.0,-999.0,47,-99.99,,,-99.99,,2013-01-22 01:42:00,
2013-01-21 18:52:00,28.0,10.0,-100.00,North,-999,-999.0,-999.0,47,-99.99,,,-99.99,,2013-01-22 01:52:00,
2013-01-21 19:02:00,28.0,9.0,-100.00,North,-999,-999.0,-999.0,43,-99.99,,,-99.99,,2013-01-22 02:02:00,
2013-01-21 19:12:00,27.0,8.0,-100.00,North,-999,-999.0,-999.0,42,-99.99,,,-99.99,,2013-01-22 02:12:00,
2013-01-21 19:22:00,27.0,8.0,-100.00,North,-999,-999.0,-999.0,42,-99.99,,,-99.99,,2013-01-22 02:22:00,
2013-01-21 19:32:00,27.0,8.0,-100.00,North,-999,-999.0,-999.0,42,-99.99,,,-99.99,,2013-01-22 02:32:00,
2013-01-21 19:42:00,27.0,8.0,-100.00,North,-999,-999.0,-999.0,43,-99.99,,,-99.99,,2013-01-22 02:42:00,
2013-01-21 19:53:00,27.0,8.0,-100.00,North,-999,-999.0,-999.0,43,-99.99,,,-99.99,,2013-01-22 02:53:00,
2013-01-21 20:02:00,27.0,7.0,-100.00,North,-999,-999.0,-999.0,42,-99.99,,,-99.99,,2013-01-22 03:02:00,
2013-01-21 20:12:00,27.0,7.0,-100.00,North,-999,-999.0,-999.0,42,-99.99,,,-99.99,,2013-01-22 03:12:00,
2013-01-21 20:22:00,27.0,7.0,-100.00,North,-999,-999.0,-999.0,42,-99.99,,,-99.99,,2013-01-22 03:22:00,
2013-01-21 20:32:00,27.0,7.0,-100.00,North,-999,-999.0,-999.0,42,-99.99,,,-99.99,,2013-01-22 03:32:00,
2013-01-21 20:42:00,26.0,7.0,-100.00,North,-999,-999.0,-999.0,42,-99.99,,,-99.99,,2013-01-22 03:42:00,
2013-01-21 20:52:00,26.0,7.0,-100.00,North,-999,-999.0,-999.0,42,-99.99,,,-99.99,,2013-01-22 03:52:00,
2013-01-21 21:02:00,26.0,7.0,-100.00,North,-999,-999.0,-999.0,42,-99.99,,,-99.99,,2013-01-22 04:02:00,
2013-01-21 21:12:00,27.0,7.0,-100.00,North,-999,-999.0,-999.0,42,-99.99,,,-99.99,,2013-01-22 04:12:00,
2013-01-21 21:22:00,27.0,7.0,-100.00,North,-999,-999.0,-999.0,42,-99.99,,,-99.99,,2013-01-22 04:22:00,
2013-01-21 21:32:00,27.0,7.0,-100.00,North,-999,-999.0,-999.0,42,-99.99,,,-99.99,,2013-01-22 04:32:00,
2013-01-21 21:42:00,27.0,8.0,-100.00,North,-999,-999.0,-999.0,44,-99.99,,,-99.99,,2013-01-22 04:42:00,
2013-01-21 21:52:00,26.0,8.0,-100.00,North,-999,-999.0,-999.0,45,-99.99,,,-99.99,,2013-01-22 04:52:00,
2013-01-21 22:03:00,26.0,8.0,-100.00,North,-999,-999.0,-999.0,45,-99.99,,,-99.99,,2013-01-22 05:03:00,
2013-01-21 22:12:00,26.0,8.0,-100.00,North,-999,-999.0,-999.0,45,-99.99,,,-99.99,,2013-01-22 05:12:00,
2013-01-21 22:22:00,26.0,8.0,-100.00,North,-999,-999.0,-999.0,45,-99.99,,,-99.99,,2013-01-22 05:22:00,
2013-01-21 22:32:00,26.0,8.0,-100.00,North,-999,-999.0,-999.0,45,-99.99,,,-99.99,,2013-01-22 05:32:00,
2013-01-21 22:42:00,26.0,8.0,-100.00,North,-999,-999.0,-999.0,44,-99.99,,,-99.99,,2013-01-22 05:42:00,
2013-01-21 22:53:00,26.0,8.0,-100.00,North,-999,-999.0,-999.0,44,-99.99,,,-99.99,,2013-01-22 05:53:00,
2013-01-21 23:02:00,26.0,8.0,-100.00,North,-999,-999.0,-999.0,45,-99.99,,,-99.99,,2013-01-22 06:02:00,
2013-01-21 23:12:00,26.0,8.0,-100.00,North,-999,-999.0,-999.0,46,-99.99,,,-99.99,,2013-01-22 06:12:00,
2013-01-21 23:22:00,26.0,8.0,-100.00,North,-999,-999.0,-999.0,46,-99.99,,,-99.99,,2013-01-22 06:22:00,
2013-01-21 23:32:00,26.0,8.0,-100.00,North,-999,-999.0,-999.0,46,-99.99,,,-99.99,,2013-01-22 06:32:00,
2013-01-21 23:42:00,25.0,7.0,-100.00,North,-999,-999.0,-999.0,46,-99.99,,,-99.99,,2013-01-22 06:42:00,
2013-01-21 23:52:00,25.0,8.0,-100.00,North,-999,-999.0,-999.0,46,-99.99,,,-99.99,,2013-01-22 06:52:00,